Location: Via Auriletto, 13, 10098 Rivoli TO, Italia
(45.0746°N, 7.5214°E)
Time: 17:34:40
(UTC+02:00)

Max Valier Satellite - Visible Passes

Search period start: 23 May 2019 00:00
Search period end: 02 June 2019 00:00
Orbit: 492 x 507 km, 97.4° (Epoch: 23 May)

Date Brightness Start Highest point End Pass type
(mag) Time Alt. Az. Time Alt. Az. Time Alt. Az.
23 May ? 21:52:39 11° SE 21:56:01 40° ENE 21:59:29 10° N visible
23 May ? 23:27:50 10° SW 23:29:58 15° W 23:32:07 10° NW visible
24 May ? 21:33:27 10° ESE 21:36:27 24° ENE 21:39:29 10° NNE visible
24 May ? 23:07:24 12° SSW 23:10:08 24° W 23:13:12 10° NW visible
25 May ? 22:47:28 14° SSW 22:50:21 41° W 22:53:53 10° NNW visible
26 May ? 22:27:32 14° S 22:30:38 74° WSW 22:34:21 10° NNW visible
27 May ? 22:07:36 12° SSE 22:10:58 62° ENE 22:14:39 10° N visible
28 May ? 21:48:00 10° SE 21:51:22 35° ENE 21:54:46 10° N visible
28 May ? 23:22:50 10° SW 23:25:15 17° W 23:27:42 10° NW visible
29 May ? 23:02:25 11° SSW 23:05:26 27° W 23:08:39 10° NW visible
30 May ? 22:42:29 12° S 22:45:40 47° W 22:49:16 10° NNW visible
31 May ? 22:22:34 12° SSE 22:25:57 85° WSW 22:29:41 10° NNW visible
01 Jun ? 22:02:42 10° SSE 22:06:18 54° ENE 22:09:56 10° N visible
01 Jun ? 23:39:13 10° WSW 23:40:23 11° W 23:41:35 10° WNW visible
